Stündliche Wetter Abashevo

Heute, 23 Juni, Mittwoch

Zeit Temperatur Niederschläge Wind Luftdruck Luftfeuchtigkeit
00:00 +24°C° 0 mm 1 m/S 750 mmHg 74%
01:00 +23°C° 0 mm 1 m/S 750 mmHg 77%
02:00 +23°C° 0 mm 1 m/S 750 mmHg 79%
03:00 +22°C° 0 mm 1 m/S 750 mmHg 81%
04:00 +23°C° 0 mm 1 m/S 750 mmHg 79%
05:00 +22°C° 0 mm 0 m/S 750 mmHg 77%
06:00 +23°C° 0 mm 0 m/S 750 mmHg 76%
07:00 +24°C° 0 mm 0 m/S 750 mmHg 71%
08:00 +28°C° 0 mm 1 m/S 750 mmHg 67%
09:00 +29°C° 0 mm 1 m/S 750 mmHg 62%
10:00 +30°C° 0 mm 1 m/S 750 mmHg 58%
11:00 +31°C° 0 mm 1 m/S 750 mmHg 53%
12:00 +30°C° 0 mm 0 m/S 750 mmHg 48%
13:00 +32°C° 0 mm 1 m/S 750 mmHg 46%
14:00 +32°C° 0 mm 1 m/S 750 mmHg 44%
15:00 +33°C° 0 mm 1 m/S 750 mmHg 43%
16:00 +32°C° 0 mm 1 m/S 749 mmHg 47%
17:00 +32°C° 0 mm 1 m/S 749 mmHg 52%
18:00 +32°C° 0 mm 1 m/S 749 mmHg 57%
19:00 +30°C° 0 mm 1 m/S 749 mmHg 60%
20:00 +28°C° 0 mm 1 m/S 749 mmHg 63%
21:00 +26°C° 0 mm 1 m/S 749 mmHg 66%
22:00 +25°C° 0.1 mm 1 m/S 749 mmHg 68%
23:00 +25°C° 0.1 mm 1 m/S 749 mmHg 70%

Morgen, 24 Juni, Donnerstag

Zeit Temperatur Niederschläge Wind Luftdruck Luftfeuchtigkeit
00:00 +24°C° 0.1 mm 1 m/S 749 mmHg 72%
01:00 +24°C° 0 mm 1 m/S 749 mmHg 75%
02:00 +23°C° 0 mm 1 m/S 749 mmHg 77%
03:00 +23°C° 0 mm 1 m/S 749 mmHg 80%
04:00 +23°C° 0 mm 1 m/S 749 mmHg 79%
05:00 +24°C° 0 mm 1 m/S 749 mmHg 79%
06:00 +25°C° 0 mm 1 m/S 749 mmHg 78%
07:00 +26°C° 0 mm 1 m/S 749 mmHg 72%
08:00 +28°C° 0 mm 1 m/S 749 mmHg 67%
09:00 +29°C° 0 mm 2 m/S 749 mmHg 61%
10:00 +30°C° 0 mm 1 m/S 749 mmHg 57%
11:00 +31°C° 0 mm 1 m/S 749 mmHg 54%
12:00 +32°C° 0 mm 1 m/S 750 mmHg 50%
13:00 +32°C° 0 mm 1 m/S 749 mmHg 49%
14:00 +32°C° 0 mm 1 m/S 749 mmHg 48%
15:00 +34°C° 0 mm 2 m/S 749 mmHg 47%
16:00 +32°C° 0 mm 1 m/S 749 mmHg 51%
17:00 +32°C° 0 mm 1 m/S 748 mmHg 54%
18:00 +30°C° 0 mm 0 m/S 748 mmHg 58%
19:00 +29°C° 0.7 mm 1 m/S 748 mmHg 65%
20:00 +26°C° 0.7 mm 1 m/S 748 mmHg 72%
21:00 +21°C° 0.7 mm 2 m/S 748 mmHg 79%
22:00 +23°C° 0.1 mm 1 m/S 748 mmHg 76%
23:00 +23°C° 0.1 mm 1 m/S 748 mmHg 72%

übermorgen, 25 Juni, Freitag

Zeit Temperatur Niederschläge Wind Luftdruck Luftfeuchtigkeit
00:00 +21°C° 0.1 mm 0 m/S 748 mmHg 69%
01:00 +23°C° 0.1 mm 1 m/S 748 mmHg 72%
02:00 +22°C° 0.1 mm 1 m/S 748 mmHg 75%
03:00 +20°C° 0.1 mm 2 m/S 748 mmHg 78%
04:00 +22°C° 0.1 mm 1 m/S 748 mmHg 77%
05:00 +23°C° 0.1 mm 1 m/S 748 mmHg 76%
06:00 +24°C° 0.1 mm 1 m/S 748 mmHg 75%
07:00 +26°C° 0 mm 1 m/S 748 mmHg 71%
08:00 +27°C° 0 mm 1 m/S 748 mmHg 66%
09:00 +29°C° 0 mm 1 m/S 748 mmHg 62%
10:00 +30°C° 0 mm 1 m/S 748 mmHg 58%
11:00 +31°C° 0 mm 1 m/S 748 mmHg 55%
12:00 +30°C° 0 mm 0 m/S 748 mmHg 51%
13:00 +30°C° 0 mm 0 m/S 747 mmHg 50%
14:00 +31°C° 0 mm 0 m/S 747 mmHg 48%
15:00 +31°C° 0 mm 0 m/S 747 mmHg 47%
16:00 +33°C° 0 mm 1 m/S 747 mmHg 52%
17:00 +32°C° 0 mm 1 m/S 746 mmHg 56%
18:00 +32°C° 0 mm 2 m/S 746 mmHg 61%
19:00 +30°C° 0 mm 2 m/S 746 mmHg 64%
20:00 +28°C° 0 mm 2 m/S 746 mmHg 67%
21:00 +27°C° 0 mm 2 m/S 746 mmHg 70%
22:00 +26°C° 0.2 mm 1 m/S 746 mmHg 75%
23:00 +24°C° 0.2 mm 1 m/S 746 mmHg 79%

26 Juni, Samstag

Zeit Temperatur Niederschläge Wind Luftdruck Luftfeuchtigkeit
00:00 +23°C° 0.2 mm 1 m/S 746 mmHg 84%
01:00 +23°C° 0.1 mm 1 m/S 746 mmHg 85%
02:00 +23°C° 0.1 mm 1 m/S 746 mmHg 87%
03:00 +22°C° 0.1 mm 1 m/S 746 mmHg 89%
04:00 +23°C° 0 mm 1 m/S 746 mmHg 87%
05:00 +24°C° 0 mm 1 m/S 746 mmHg 85%
06:00 +25°C° 0 mm 1 m/S 746 mmHg 84%
07:00 +26°C° 0 mm 1 m/S 746 mmHg 78%
08:00 +28°C° 0 mm 1 m/S 746 mmHg 71%
09:00 +30°C° 0 mm 1 m/S 746 mmHg 65%
10:00 +30°C° 0.2 mm 1 m/S 746 mmHg 60%
11:00 +31°C° 0.2 mm 1 m/S 746 mmHg 55%
12:00 +32°C° 0.2 mm 1 m/S 746 mmHg 50%
13:00 +32°C° 0 mm 2 m/S 745 mmHg 50%
14:00 +32°C° 0 mm 2 m/S 745 mmHg 51%
15:00 +32°C° 0 mm 2 m/S 745 mmHg 51%
16:00 +31°C° 0.1 mm 3 m/S 745 mmHg 57%
17:00 +31°C° 0.1 mm 3 m/S 744 mmHg 62%
18:00 +30°C° 0.1 mm 3 m/S 744 mmHg 68%
19:00 +27°C° 0.4 mm 2 m/S 744 mmHg 70%
20:00 +25°C° 0.4 mm 2 m/S 744 mmHg 72%
21:00 +23°C° 0.4 mm 2 m/S 745 mmHg 74%
22:00 +23°C° 0 mm 2 m/S 745 mmHg 77%
23:00 +21°C° 0 mm 2 m/S 745 mmHg 80%

27 Juni, Sonntag

Zeit Temperatur Niederschläge Wind Luftdruck Luftfeuchtigkeit
00:00 +21°C° 0 mm 2 m/S 745 mmHg 83%
01:00 +21°C° 0 mm 2 m/S 745 mmHg 84%
02:00 +21°C° 0 mm 2 m/S 745 mmHg 86%
03:00 +21°C° 0 mm 2 m/S 745 mmHg 87%
04:00 +23°C° 0 mm 1 m/S 745 mmHg 85%
05:00 +24°C° 0 mm 1 m/S 745 mmHg 84%
06:00 +25°C° 0 mm 1 m/S 745 mmHg 83%
07:00 +26°C° 0.1 mm 1 m/S 745 mmHg 77%
08:00 +28°C° 0.1 mm 1 m/S 745 mmHg 72%
09:00 +29°C° 0.1 mm 1 m/S 745 mmHg 66%
10:00 +30°C° 0.3 mm 1 m/S 745 mmHg 62%
11:00 +31°C° 0.3 mm 2 m/S 745 mmHg 57%
12:00 +32°C° 0.3 mm 2 m/S 745 mmHg 52%
13:00 +32°C° 0 mm 2 m/S 745 mmHg 51%
14:00 +33°C° 0 mm 1 m/S 745 mmHg 51%
15:00 +33°C° 0 mm 1 m/S 745 mmHg 50%
16:00 +32°C° 0.1 mm 1 m/S 745 mmHg 54%
17:00 +32°C° 0.1 mm 1 m/S 745 mmHg 59%
18:00 +31°C° 0.1 mm 1 m/S 745 mmHg 63%
19:00 +30°C° 0.2 mm 1 m/S 744 mmHg 67%
20:00 +28°C° 0.2 mm 1 m/S 744 mmHg 70%
21:00 +26°C° 0.2 mm 1 m/S 744 mmHg 73%
22:00 +26°C° 0.1 mm 1 m/S 744 mmHg 75%
23:00 +25°C° 0.1 mm 1 m/S 744 mmHg 76%

28 Juni, Montag

Zeit Temperatur Niederschläge Wind Luftdruck Luftfeuchtigkeit
00:00 +25°C° 0.1 mm 1 m/S 744 mmHg 78%
01:00 +24°C° 0.1 mm 1 m/S 744 mmHg 79%
02:00 +24°C° 0.1 mm 1 m/S 744 mmHg 81%
03:00 +24°C° 0.1 mm 1 m/S 744 mmHg 82%
04:00 +24°C° 0.2 mm 1 m/S 744 mmHg 82%
05:00 +25°C° 0.2 mm 1 m/S 744 mmHg 81%
06:00 +26°C° 0.2 mm 1 m/S 744 mmHg 81%
07:00 +27°C° 0.2 mm 1 m/S 744 mmHg 76%
08:00 +28°C° 0.2 mm 1 m/S 744 mmHg 71%
09:00 +30°C° 0.2 mm 1 m/S 744 mmHg 66%
10:00 +30°C° 0.2 mm 1 m/S 744 mmHg 62%
11:00 +31°C° 0.2 mm 1 m/S 744 mmHg 59%
12:00 +32°C° 0.2 mm 1 m/S 744 mmHg 55%
13:00 +32°C° 0 mm 1 m/S 744 mmHg 54%
14:00 +33°C° 0 mm 1 m/S 744 mmHg 53%
15:00 +33°C° 0 mm 1 m/S 744 mmHg 52%
16:00 +33°C° 0 mm 1 m/S 744 mmHg 56%
17:00 +32°C° 0 mm 2 m/S 743 mmHg 59%
18:00 +32°C° 0 mm 2 m/S 743 mmHg 63%
19:00 +30°C° 0 mm 2 m/S 743 mmHg 69%
20:00 +28°C° 0 mm 3 m/S 743 mmHg 75%
21:00 +26°C° 0 mm 3 m/S 742 mmHg 81%
22:00 +25°C° 0.3 mm 3 m/S 742 mmHg 81%
23:00 +24°C° 0.3 mm 3 m/S 742 mmHg 80%
Mehr zeigen

Wir brauchen deine Erlaubnis

Meteoprog und unser Service Anbieter werden persönliche Daten aufbewahren, so wie Cookies, Geräte Bezeichnung oder ähnliche Technologien von deinem Gerät und Prozess, so wie Persönliche Daten Inhalte und Werbungen, genauso wie social Media und den Verkehr zu analysieren.

  • Aufbewahrung und/oder Zugang zu deiner Geräte Informationen.

    Cookies, Geräte Bezeichnung oder andere Informationen, können aufbewahrt oder Zugang zu deinem Gerät erhalten, für den Grund, der oben angegeben wird.

  • Personalisierte Werbung und Inhalte, Messungen, Einblick in das Publikum und Produkt Entwicklung.

    Werbungen und Inhalte können personalisiert werden, basierend auf ein Profil. Mehr Daten können besser personalisierte Werbungen und Inhalte hinzufügen. Werbung und Inhalte können gezeigt und gemessen werden. Einblicke über das Publikum, welche die Werbung gesehen haben und den Inhalt, können abgeleitet werden. So wie Daten können genutzt werden, um es zu verbessern oder die Benutzer Erfahrung zu verbessern das System und die Software.

Wenn du “Ich stimme zu” klickst, erlaubst du uns, die Cookies zu benutzen die Geräte Bezeichnung, den Web oder ähnliche Technologien zu benutzen. Deine Settings, können in deinem Gerät bei deinem Browser geändert werden.

Für den bestimmten Zweck, berechtigten Interessen beruhen darauf, mehr als auf den Inhalt. Du kannst mehr darüber in unseren Privaten und Cookie Politik lesen.